Tracking 28790 objects as of 19-Apr-2024
HD Live streaming from Space Station
objects crossing your sky now

CZ-4 DEB

Track CZ-4 DEB now!
10-day predictions


NORAD ID: 20865
Int'l Code: 1990-081AD
Perigee: 657.5 km
Apogee: 691.0 km
Inclination: 98.2 °
Period: 98.1 minutes
Semi major axis: 7045 km
RCS: 0.0963 m2 (small)
Launch date: September 3, 1990
Source: People's Republic of China (PRC)
Launch site: Taiyaun Space Center, China (TSC)

Note: This is SATELLITE DEBRIS
Your satellite tracking list
Your tracking list is empty




NASA's NSSDC Master Catalog

Two Line Element Set (TLE):
1 20865U 90081AD  24109.45667562  .00031549  00000-0  54522-2 0  9998
2 20865  98.1960 101.2241 0023772 341.2501 171.8522 14.68117192757964
Source of the keplerian elements: AFSPC